Tracking 25370 objects as of 25-Jan-2022
HD Live streaming from Space Station
objects crossing your sky now

STARLINK-2284

Track STARLINK-2284 now!
10-day predictions
STARLINK-2284 is classified as:


NORAD ID: 48016
Int'l Code: 2021-024AR
Perigee: 553.1 km
Apogee: 555.6 km
Inclination: 53.1 °
Period: 95.6 minutes
Semi major axis: 6925 km
RCS: Unknown
Launch date: March 24, 2021
Source: United States (US)
Launch site: AIR FORCE EASTERN TEST RANGE (AFETR)
aabbcc
Your satellite tracking list
Your tracking list is empty




NASA's NSSDC Master Catalog

Two Line Element Set (TLE):
1 48016U 21024AR  22024.91667824 -.00005361  00000-0 -34129-3 0  9990
2 48016  53.0534 166.7962 0001746  66.1769 142.3438 15.06399621  3584
Source of the keplerian elements: AFSPC